Weather History for Ogden, UT

Change the Weather History Date:

Wednesday, January 8, 2014

  Actual Average Record
Temperature  
Mean Temperature 28 °F -  
Max Temperature 33 °F 33 °F 55 °F (1956)
Min Temperature 24 °F 16 °F -8 °F (1937)
Degree Days  
Heating Degree Days 36    
Moisture  
Dew Point 26 °F    
Average Humidity 89    
Maximum Humidity 92    
Minimum Humidity 84    
Precipitation  
Precipitation 0.21 in - - ()
Sea Level Pressure  
Sea Level Pressure 30.13 in    
Wind  
Wind Speed 3 mph (SW)    
Max Wind Speed 9 mph    
Max Gust Speed -    
Visibility 1 miles    
Events Fog , Snow    
Averages and records for this station are not official NWS values.
T = Trace of Precipitation, MM = Missing Value Source: NWS Daily Summary

Daily Weather History Graph

Daily Weather History Graph

Search for Another Location

Airport:

Trip Planner

Search our weather history database for the weather conditions in past years. The results will help you decide how hot, cold, wet, or windy it might be!

Date:

Astronomy

Jan. 08, 2014 Rise Set
Actual Time 7:53 AM MST 5:16 PM MST
Civil Twilight 7:22 AM MST 5:47 PM MST
Nautical Twilight 6:48 AM MST 6:21 PM MST
Astronomical Twilight 6:14 AM MST 6:55 PM MST
Moon 12:13 PM MST (1/8) 1:00 AM MST (1/8)
Length of Visible Light 10h 24m
Length of Day
9h 23m
First Quarter, 56% of the Moon is Illuminated
Jan 8
First Quarter
Jan 15
Full
Jan 23
Last Quarter
Jan 30
New
Feb 6
First Quarter

Hourly Weather History & Observations

Time (MST) Temp. Windchill Dew Point Humidity Pressure Visibility Wind Dir Wind Speed Gust Speed Precip Events Conditions
12:53 AM 26.1 °F 21.9 °F 23.0 °F 88% 30.17 in 5.0 mi West 3.5 mph - N/A   Overcast
1:53 AM 24.1 °F 18.2 °F 21.0 °F 88% 30.17 in 3.0 mi NNW 4.6 mph - N/A   Overcast
2:53 AM 25.0 °F 20.7 °F 21.0 °F 85% 30.17 in 4.0 mi ENE 3.5 mph - N/A   Overcast
3:53 AM 27.0 °F - 23.0 °F 85% 30.15 in 4.0 mi Calm Calm - 0.00 in   Overcast
4:53 AM 26.1 °F 21.9 °F 21.9 °F 84% 30.16 in 4.0 mi WNW 3.5 mph - N/A   Overcast
5:07 AM 26.1 °F 21.9 °F 21.9 °F 84% 30.10 in 2.5 mi WNW 3.5 mph - 0.00 in Snow Light Snow
5:15 AM 26.1 °F - 21.9 °F 84% 30.10 in 1.2 mi Calm Calm - 0.00 in Snow Light Snow
5:53 AM 26.1 °F - 23.0 °F 88% 30.16 in 1.2 mi Calm Calm - 0.01 in Snow Light Snow
6:53 AM 28.0 °F 21.7 °F 25.0 °F 88% 30.16 in 1.2 mi SSE 5.8 mph - 0.02 in Snow Light Snow
7:53 AM 28.0 °F 24.2 °F 26.1 °F 92% 30.17 in 1.0 mi South 3.5 mph - 0.02 in Snow Light Snow
8:11 AM 28.0 °F 22.8 °F 26.1 °F 92% 30.10 in 0.8 mi South 4.6 mph - 0.00 in Snow Light Snow
8:18 AM 28.0 °F 22.8 °F 26.1 °F 92% 30.11 in 0.5 mi SSW 4.6 mph - 0.01 in Fog , Snow Light Snow
8:26 AM 28.0 °F 22.8 °F 25.0 °F 88% 30.11 in 0.5 mi South 4.6 mph - 0.01 in Fog , Snow Light Snow
8:53 AM 28.0 °F 24.2 °F 26.1 °F 92% 30.20 in 0.8 mi SSE 3.5 mph - 0.02 in Snow Light Snow
9:12 AM 28.9 °F 25.2 °F 26.1 °F 89% 30.12 in 1.0 mi South 3.5 mph - 0.00 in Snow Light Snow
9:20 AM 28.0 °F 24.2 °F 25.0 °F 88% 30.13 in 0.8 mi South 3.5 mph - 0.01 in Snow Light Snow
9:38 AM 28.9 °F 23.9 °F 26.1 °F 89% 30.13 in 0.8 mi SSE 4.6 mph - 0.01 in Snow Light Snow
9:53 AM 28.9 °F 22.8 °F 26.1 °F 89% 30.20 in 0.8 mi SSE 5.8 mph - 0.01 in Snow Light Snow
10:07 AM 28.9 °F 25.2 °F 26.1 °F 89% 30.13 in 0.5 mi SE 3.5 mph - 0.01 in Fog , Snow Light Snow
10:25 AM 28.9 °F 25.2 °F 27.0 °F 92% 30.13 in 0.5 mi SSE 3.5 mph - 0.02 in Fog , Snow Snow
10:43 AM 30.0 °F 26.5 °F 27.0 °F 88% 30.14 in 0.5 mi SSW 3.5 mph - 0.03 in Fog , Snow Snow
10:53 AM 30.0 °F 26.5 °F 28.0 °F 92% 30.19 in 0.2 mi SSW 3.5 mph - 0.03 in Fog , Snow Snow
11:16 AM 30.0 °F 26.5 °F 27.0 °F 88% 30.13 in 0.5 mi WNW 3.5 mph - 0.02 in Fog , Snow Snow
11:26 AM 30.0 °F 26.5 °F 27.0 °F 88% 30.13 in 0.5 mi WNW 3.5 mph - 0.02 in Fog , Snow Light Snow
11:53 AM 28.9 °F 25.2 °F 26.1 °F 89% 30.18 in 0.5 mi WNW 3.5 mph - 0.03 in Fog , Snow Light Snow
12:05 PM 28.9 °F 23.9 °F 26.1 °F 89% 30.12 in 0.5 mi WNW 4.6 mph - 0.00 in Fog , Snow Light Snow
12:26 PM 28.9 °F 25.2 °F 26.1 °F 89% 30.11 in 0.2 mi NW 3.5 mph - 0.02 in Fog , Snow Snow
12:53 PM 30.0 °F - 27.0 °F 88% 30.17 in 0.2 mi Calm Calm - 0.05 in Fog , Snow Snow
1:12 PM 30.0 °F - 27.0 °F 88% 30.10 in 0.5 mi Calm Calm - 0.00 in Fog , Snow Light Snow
1:29 PM 30.0 °F - 27.0 °F 88% 30.10 in 0.5 mi Calm Calm - 0.01 in Fog , Snow Snow
1:53 PM 30.9 °F - 28.0 °F 89% 30.15 in 0.5 mi Calm Calm - 0.02 in Fog , Snow Light Snow
1:58 PM 30.9 °F - 28.0 °F 89% 30.09 in 0.8 mi Calm Calm - 0.00 in Snow Light Snow
2:20 PM 32.0 °F - 28.0 °F 85% 30.09 in 1.0 mi Calm Calm - 0.00 in   Overcast
2:53 PM 32.0 °F - 28.9 °F 88% 30.15 in 1.5 mi Calm Calm - 0.00 in   Overcast
3:53 PM 32.0 °F - 28.9 °F 88% 30.14 in 1.2 mi Calm Calm - N/A   Overcast
4:08 PM 33.1 °F - 28.9 °F 85% 30.10 in 1.2 mi Calm Calm - N/A   Overcast
4:43 PM 32.0 °F 27.5 °F 28.9 °F 88% 30.10 in 1.0 mi WNW 4.6 mph - N/A   Overcast
4:53 PM 32.0 °F 28.7 °F 28.0 °F 85% 30.14 in 1.0 mi NW 3.5 mph - N/A   Overcast
5:53 PM 30.9 °F 26.2 °F 28.0 °F 89% 30.15 in 1.8 mi WNW 4.6 mph - N/A   Overcast
6:15 PM 30.9 °F 25.2 °F 28.0 °F 89% 30.11 in 1.8 mi NW 5.8 mph - N/A   Overcast
6:24 PM 30.0 °F 24.1 °F 27.0 °F 88% 30.11 in 1.2 mi WNW 5.8 mph - N/A   Overcast
6:53 PM 28.9 °F 21.9 °F 26.1 °F 89% 30.16 in 1.0 mi NE 6.9 mph - N/A   Overcast
7:16 PM 28.9 °F 23.9 °F 27.0 °F 92% 30.11 in 1.2 mi NE 4.6 mph - N/A   Overcast
7:53 PM 28.9 °F - 26.1 °F 89% 30.16 in 1.5 mi Calm Calm - N/A   Overcast
8:18 PM 28.9 °F 25.2 °F 26.1 °F 89% 30.11 in 1.5 mi East 3.5 mph - N/A   Overcast
8:53 PM 30.0 °F - 27.0 °F 88% 30.16 in 1.2 mi Calm Calm - N/A   Overcast
9:09 PM 30.0 °F - 27.0 °F 88% 30.11 in 1.2 mi Calm Calm - N/A   Overcast
9:32 PM 30.0 °F - 28.0 °F 92% 30.12 in 1.0 mi Calm Calm - N/A   Overcast
9:53 PM 28.9 °F 23.9 °F 26.1 °F 89% 30.17 in 1.0 mi NNE 4.6 mph - N/A   Overcast
10:53 PM 28.0 °F 20.8 °F 26.1 °F 92% 30.12 in 1.0 mi SE 6.9 mph - N/A   Mostly Cloudy
11:26 PM 30.9 °F 22.8 °F 28.0 °F 89% 30.06 in 2.0 mi SSE 9.2 mph - N/A   Overcast
11:53 PM 30.0 °F 21.7 °F 28.0 °F 92% 30.09 in 2.5 mi West 9.2 mph - N/A   Mostly Cloudy